Location: Gleizolles
(44.4833°N, 6.7667°E)
Time: 21:46:41
(UTC+00:00)

A-11 Canister half - Pass Details

Date: 04 July 2024
Orbit: 1524 x 1684 km, 47.3° (Epoch: 18 July)

Event Time Altitude Azimuth Distance (km) Brightness Sun altitude
Rises 11:21:12 0° 265° (W) 4,787 11.6 68.1°
Reaches altitude 10° 11:24:21 10° 267° (W) 3,782 11.2 68.2°
Maximum altitude 11:33:55 77° 354° (N) 1,586 10.2 68.3°
Drops below altitude 10° 11:43:16 10° 81° (E) 3,695 11.1 68.3°
Sets 11:46:18 0° 83° (E) 4,673 11.5 68.2°
